Back to catalog

COSMOS 789 DEB

AlivePO
NORAD 36299·DEBRIS·🇷🇺 Russia

Launched Jan 20, 1976 from Plesetsk Cosmodrome

Loading…

Next Passes (next 24 hours)

TLE

FreshSource: Space-Track

Epoch: Sep 13, 2026, 09:08 UTC

1 36299U 76005C   26256.38110022  .00000560  00000-0  52073-3 0  9996
2 36299  82.9698 117.0221 0027645 245.0030 289.6293 13.80360713864082

Track COSMOS 789 DEB in real time with AllMySat

Download on the App Store